"datetime","temp","dp","rain_mm","uv","solar","mb","wind_mph","gust_mph","windchill","rh"
"2019-06-02 00:00:00",14.6,13.3,0.0,0.0,0,1013.2,0,0,"",92
"2019-06-02 00:01:00",14.5,13.2,0.0,0.0,0,1013.3,0,0,"",92
"2019-06-02 00:02:00",14.5,13.2,0.0,0.0,0,1013.2,0,0,"",92
"2019-06-02 00:03:00",14.4,13.1,0.0,0.0,0,1013.2,0,0,"",92
"2019-06-02 00:04:00",14.4,13.1,0.0,0.0,0,1013.2,0,0,"",92
"2019-06-02 00:05:00",14.4,13.1,0.0,0.0,0,1013.2,0,0,"",92
"2019-06-02 00:06:00",14.5,13.2,0.0,0.0,0,1013.1,0,0,"",92
"2019-06-02 00:07:00",14.4,13.1,0.0,0.0,0,1013.1,0,0,"",92
"2019-06-02 00:08:00",14.4,12.9,0.0,0.0,0,1013.1,0,0,"",91
"2019-06-02 00:09:00",14.4,13.1,0.0,0.0,0,1013.1,0,0,"",92
"2019-06-02 00:10:00",14.4,13.1,0.0,0.0,0,1013.1,0,0,"",92
"2019-06-02 00:11:00",14.4,13.1,0.0,0.0,0,1013.1,0,0,"",92
"2019-06-02 00:12:00",14.3,12.9,0.0,0.0,0,1013.1,0,0,"",91
"2019-06-02 00:13:00",14.3,12.9,0.0,0.0,0,1013.1,0,0,"",91
"2019-06-02 00:14:00",14.3,13.0,0.0,0.0,0,1013.1,0,0,"",92
"2019-06-02 00:15:00",14.2,12.9,0.0,0.0,0,1013.1,0,0,"",92
"2019-06-02 00:16:00",14.2,12.9,0.0,0.0,0,1013.1,0,0,"",92
"2019-06-02 00:17:00",14.3,13.0,0.0,0.0,0,1013.1,0,0,"",92
"2019-06-02 00:18:00",14.2,12.9,0.0,0.0,0,1013.0,0,0,"",92
"2019-06-02 00:19:00",14.2,12.9,0.0,0.0,0,1013.0,0,0,"",92
"2019-06-02 00:20:00",14.2,12.9,0.0,0.0,0,1013.0,0,0,"",92
"2019-06-02 00:21:00",14.1,12.8,0.0,0.0,0,1013.1,0,0,"",92
"2019-06-02 00:22:00",14.1,12.8,0.0,0.0,0,1013.1,0,0,"",92
"2019-06-02 00:23:00",14.1,12.8,0.0,0.0,0,1013.0,0,0,"",92
"2019-06-02 00:24:00",14.1,12.8,0.0,0.0,0,1013.0,0,0,"",92
"2019-06-02 00:25:00",14.1,12.8,0.0,0.0,0,1013.0,0,0,"",92
"2019-06-02 00:26:00",14.1,12.8,0.0,0.0,0,1013.0,0,0,"",92
"2019-06-02 00:27:00",14.0,12.7,0.0,0.0,0,1012.9,0,0,"",92
"2019-06-02 00:28:00",14.1,12.8,0.0,0.0,0,1012.9,0,0,"",92
"2019-06-02 00:29:00",14.0,12.7,0.0,0.0,0,1012.9,0,0,"",92
"2019-06-02 00:30:00",14.1,12.8,0.0,0.0,0,1012.9,0,0,"",92
"2019-06-02 00:31:00",14.1,13.0,0.0,0.0,0,1012.9,0,0,"",93
"2019-06-02 00:32:00",14.1,13.0,0.0,0.0,0,1012.9,0,0,"",93
"2019-06-02 00:33:00",14.1,13.0,0.0,0.0,0,1012.9,0,0,"",93
"2019-06-02 00:34:00",14.1,12.8,0.0,0.0,0,1012.9,0,0,"",92
"2019-06-02 00:35:00",14.0,12.7,0.0,0.0,0,1012.8,0,0,"",92
"2019-06-02 00:36:00",14.0,12.7,0.0,0.0,0,1012.9,0,0,"",92
"2019-06-02 00:37:00",13.9,12.6,0.0,0.0,0,1012.8,0,0,"",92
"2019-06-02 00:38:00",13.9,12.8,0.0,0.0,0,1012.8,0,0,"",93
"2019-06-02 00:39:00",14.0,12.9,0.0,0.0,0,1012.8,0,0,"",93
"2019-06-02 00:40:00",14.0,12.9,0.0,0.0,0,1012.8,0,0,"",93
"2019-06-02 00:41:00",13.9,12.8,0.0,0.0,0,1012.8,0,0,"",93
"2019-06-02 00:42:00",13.9,12.8,0.0,0.0,0,1012.8,0,0,"",93
"2019-06-02 00:43:00",13.9,12.8,0.0,0.0,0,1012.8,0,0,"",93
"2019-06-02 00:44:00",13.9,12.8,0.0,0.0,0,1012.8,0,0,"",93
"2019-06-02 00:45:00",13.9,12.8,0.0,0.0,0,1012.8,0,0,"",93
"2019-06-02 00:46:00",13.9,12.8,0.0,0.0,0,1012.8,0,0,"",93
"2019-06-02 00:47:00",13.9,12.6,0.0,0.0,0,1012.8,0,0,"",92
"2019-06-02 00:48:00",13.9,12.6,0.0,0.0,0,1012.8,0,0,"",92
"2019-06-02 00:49:00",13.9,12.8,0.0,0.0,0,1012.8,0,0,"",93
"2019-06-02 00:50:00",13.9,12.8,0.0,0.0,0,1012.8,0,0,"",93
"2019-06-02 00:51:00",13.9,12.8,0.0,0.0,0,1012.7,0,0,"",93
"2019-06-02 00:52:00",13.9,12.8,0.0,0.0,0,1012.8,0,0,"",93
"2019-06-02 00:53:00",13.9,12.8,0.0,0.0,0,1012.8,0,0,"",93
"2019-06-02 00:54:00",13.9,12.8,0.0,0.0,0,1012.7,0,0,"",93
"2019-06-02 00:55:00",13.9,12.8,0.0,0.0,0,1012.8,0,0,"",93
"2019-06-02 00:56:00",13.9,12.8,0.0,0.0,0,1012.7,0,0,"",93
"2019-06-02 00:57:00",13.9,12.8,0.0,0.0,0,1012.7,0,0,"",93
"2019-06-02 00:58:00",13.9,12.6,0.0,0.0,0,1012.7,0,0,"",92
"2019-06-02 00:59:00",13.9,12.8,0.0,0.0,0,1012.7,0,0,"",93
"2019-06-02 01:00:00",13.9,12.8,0.0,0.0,0,1012.6,0,0,"",93
"2019-06-02 01:01:00",13.9,12.8,0.0,0.0,0,1012.7,0,0,"",93
"2019-06-02 01:02:00",13.9,12.8,0.0,0.0,0,1012.7,0,0,"",93
"2019-06-02 01:03:00",13.9,12.8,0.0,0.0,0,1012.7,0,0,"",93
"2019-06-02 01:04:00",13.9,12.8,0.0,0.0,0,1012.7,0,0,"",93
"2019-06-02 01:05:00",13.9,12.8,0.0,0.0,0,1012.7,0,0,"",93
"2019-06-02 01:06:00",13.9,12.8,0.0,0.0,0,1012.6,0,0,"",93
"2019-06-02 01:07:00",13.8,12.5,0.0,0.0,0,1012.6,0,0,"",92
"2019-06-02 01:08:00",13.8,12.7,0.0,0.0,0,1012.6,0,0,"",93
"2019-06-02 01:09:00",13.9,12.8,0.0,0.0,0,1012.6,0,0,"",93
"2019-06-02 01:10:00",13.8,12.7,0.0,0.0,0,1012.6,0,0,"",93
"2019-06-02 01:11:00",13.8,12.7,0.0,0.0,0,1012.6,0,0,"",93
"2019-06-02 01:12:00",13.8,12.7,0.0,0.0,0,1012.5,0,0,"",93
"2019-06-02 01:13:00",13.8,12.7,0.0,0.0,0,1012.5,0,0,"",93
"2019-06-02 01:14:00",13.8,12.7,0.0,0.0,0,1012.5,0,0,"",93
"2019-06-02 01:15:00",13.8,12.7,0.0,0.0,0,1012.5,0,0,"",93
"2019-06-02 01:16:00",13.8,12.7,0.0,0.0,0,1012.5,0,0,"",93
"2019-06-02 01:17:00",13.8,12.5,0.0,0.0,0,1012.5,0,0,"",92
"2019-06-02 01:18:00",13.7,12.6,0.0,0.0,0,1012.5,0,0,"",93
"2019-06-02 01:19:00",13.7,12.6,0.0,0.0,0,1012.5,0,0,"",93
"2019-06-02 01:20:00",13.7,12.6,0.0,0.0,0,1012.5,0,0,"",93
"2019-06-02 01:21:00",13.7,12.6,0.0,0.0,0,1012.5,0,0,"",93
"2019-06-02 01:22:00",13.7,12.6,0.0,0.0,0,1012.5,0,0,"",93
"2019-06-02 01:23:00",13.7,12.6,0.0,0.0,0,1012.4,0,0,"",93
"2019-06-02 01:24:00",13.7,12.6,0.0,0.0,0,1012.4,0,0,"",93
"2019-06-02 01:25:00",13.6,12.5,0.0,0.0,0,1012.4,0,0,"",93
"2019-06-02 01:26:00",13.6,12.5,0.0,0.0,0,1012.4,0,0,"",93
"2019-06-02 01:27:00",13.6,12.5,0.0,0.0,0,1012.4,0,0,"",93
"2019-06-02 01:28:00",13.6,12.5,0.0,0.0,0,1012.4,0,0,"",93
"2019-06-02 01:29:00",13.6,12.5,0.0,0.0,0,1012.4,0,0,"",93
"2019-06-02 01:30:00",13.6,12.5,0.0,0.0,0,1012.3,0,0,"",93
"2019-06-02 01:31:00",13.6,12.5,0.0,0.0,0,1012.4,0,0,"",93
"2019-06-02 01:32:00",13.6,12.5,0.0,0.0,0,1012.4,0,0,"",93
"2019-06-02 01:33:00",13.5,12.4,0.0,0.0,0,1012.3,0,0,"",93
"2019-06-02 01:34:00",13.4,12.3,0.0,0.0,0,1012.3,0,0,"",93
"2019-06-02 01:35:00",13.4,12.3,0.0,0.0,0,1012.3,0,0,"",93
"2019-06-02 01:36:00",13.4,12.3,0.0,0.0,0,1012.3,0,0,"",93
"2019-06-02 01:37:00",13.4,12.3,0.0,0.0,0,1012.3,0,0,"",93
"2019-06-02 01:38:00",13.4,12.3,0.0,0.0,0,1012.3,0,0,"",93
"2019-06-02 01:39:00",13.4,12.3,0.0,0.0,0,1012.3,0,0,"",93
"2019-06-02 01:40:00",13.3,12.2,0.0,0.0,0,1012.3,0,0,"",93
"2019-06-02 01:41:00",13.3,12.2,0.0,0.0,0,1012.3,0,0,"",93
"2019-06-02 01:42:00",13.3,12.2,0.0,0.0,0,1012.3,0,0,"",93
"2019-06-02 01:43:00",13.3,12.2,0.0,0.0,0,1012.3,0,0,"",93
"2019-06-02 01:44:00",13.3,12.2,0.0,0.0,0,1012.2,0,0,"",93
"2019-06-02 01:45:00",13.3,12.2,0.0,0.0,0,1012.2,0,0,"",93
"2019-06-02 01:46:00",13.3,12.2,0.0,0.0,0,1012.2,0,0,"",93
"2019-06-02 01:47:00",13.3,12.2,0.0,0.0,0,1012.2,0,0,"",93
"2019-06-02 01:48:00",13.3,12.2,0.0,0.0,0,1012.2,0,0,"",93
"2019-06-02 01:49:00",13.3,12.4,0.0,0.0,0,1012.2,0,0,"",94
"2019-06-02 01:50:00",13.3,12.2,0.0,0.0,0,1012.2,0,0,"",93
"2019-06-02 01:51:00",13.3,12.2,0.0,0.0,0,1012.2,0,0,"",93
"2019-06-02 01:52:00",13.3,12.2,0.0,0.0,0,1012.2,0,0,"",93
"2019-06-02 01:53:00",13.3,12.2,0.0,0.0,0,1012.2,0,0,"",93
"2019-06-02 01:54:00",13.3,12.2,0.0,0.0,0,1012.1,0,0,"",93
"2019-06-02 01:55:00",13.3,12.4,0.0,0.0,0,1012.2,0,0,"",94
"2019-06-02 01:56:00",13.3,12.2,0.0,0.0,0,1012.1,0,0,"",93
"2019-06-02 01:57:00",13.3,12.2,0.0,0.0,0,1012.1,0,0,"",93
"2019-06-02 01:58:00",13.3,12.2,0.0,0.0,0,1012.1,0,0,"",93
"2019-06-02 01:59:00",13.2,12.1,0.0,0.0,0,1012.1,0,0,"",93
"2019-06-02 02:00:00",13.2,12.1,0.0,0.0,0,1012.1,0,0,"",93
"2019-06-02 02:01:00",13.2,12.1,0.0,0.0,0,1012.1,0,0,"",93
"2019-06-02 02:02:00",13.2,12.1,0.0,0.0,0,1012.0,0,0,"",93
"2019-06-02 02:03:00",13.2,12.1,0.0,0.0,0,1012.0,0,0,"",93
"2019-06-02 02:04:00",13.2,12.3,0.0,0.0,0,1012.1,0,0,"",94
"2019-06-02 02:05:00",13.2,12.3,0.0,0.0,0,1012.1,0,0,"",94
"2019-06-02 02:06:00",13.1,12.0,0.0,0.0,0,1012.1,0,0,"",93
"2019-06-02 02:07:00",13.1,12.2,0.0,0.0,0,1012.1,0,0,"",94
"2019-06-02 02:08:00",13.1,12.2,0.0,0.0,0,1012.0,0,0,"",94
"2019-06-02 02:09:00",13.1,12.2,0.0,0.0,0,1012.0,0,0,"",94
"2019-06-02 02:10:00",13.1,12.2,0.0,0.0,0,1012.0,0,0,"",94
"2019-06-02 02:11:00",13.1,12.2,0.0,0.0,0,1012.0,0,0,"",94
"2019-06-02 02:12:00",13.1,12.2,0.0,0.0,0,1012.0,0,0,"",94
"2019-06-02 02:13:00",13.1,12.0,0.0,0.0,0,1012.0,0,0,"",93
"2019-06-02 02:14:00",13.1,12.2,0.0,0.0,0,1011.9,0,0,"",94
"2019-06-02 02:15:00",13.1,12.2,0.0,0.0,0,1011.9,0,0,"",94
"2019-06-02 02:16:00",13.1,12.2,0.0,0.0,0,1011.9,0,0,"",94
"2019-06-02 02:17:00",13.0,12.1,0.0,0.0,0,1011.9,0,0,"",94
"2019-06-02 02:18:00",13.0,12.1,0.0,0.0,0,1011.9,0,0,"",94
"2019-06-02 02:19:00",13.0,12.1,0.0,0.0,0,1011.8,0,0,"",94
"2019-06-02 02:20:00",12.9,12.0,0.0,0.0,0,1011.9,0,0,"",94
"2019-06-02 02:21:00",12.9,11.8,0.0,0.0,0,1011.8,0,0,"",93
"2019-06-02 02:22:00",12.9,12.0,0.0,0.0,0,1011.8,0,0,"",94
"2019-06-02 02:23:00",12.9,12.0,0.0,0.0,0,1011.8,0,0,"",94
"2019-06-02 02:24:00",12.9,12.0,0.0,0.0,0,1011.8,0,0,"",94
"2019-06-02 02:25:00",12.9,12.0,0.0,0.0,0,1011.7,0,0,"",94
"2019-06-02 02:26:00",12.9,12.0,0.0,0.0,0,1011.7,0,0,"",94
"2019-06-02 02:27:00",12.9,12.0,0.0,0.0,0,1011.7,0,0,"",94
"2019-06-02 02:28:00",12.9,12.0,0.0,0.0,0,1011.7,0,0,"",94
"2019-06-02 02:29:00",12.8,11.9,0.0,0.0,0,1011.7,0,0,"",94
"2019-06-02 02:30:00",12.8,11.9,0.0,0.0,0,1011.7,0,0,"",94
"2019-06-02 02:31:00",12.8,11.9,0.0,0.0,0,1011.7,0,0,"",94
"2019-06-02 02:32:00",12.8,11.9,0.0,0.0,0,1011.6,0,0,"",94
"2019-06-02 02:33:00",12.8,11.9,0.0,0.0,0,1011.6,0,0,"",94
"2019-06-02 02:34:00",12.8,11.9,0.0,0.0,0,1011.6,0,0,"",94
"2019-06-02 02:35:00",12.8,11.9,0.0,0.0,0,1011.6,0,0,"",94
"2019-06-02 02:36:00",12.8,11.9,0.0,0.0,0,1011.6,0,0,"",94
"2019-06-02 02:37:00",12.7,11.8,0.0,0.0,0,1011.6,0,0,"",94
"2019-06-02 02:38:00",12.7,11.8,0.0,0.0,0,1011.5,0,0,"",94
"2019-06-02 02:39:00",12.7,11.8,0.0,0.0,0,1011.5,0,0,"",94
"2019-06-02 02:40:00",12.7,11.8,0.0,0.0,0,1011.5,0,0,"",94
"2019-06-02 02:41:00",12.7,11.8,0.0,0.0,0,1011.5,0,0,"",94
"2019-06-02 02:42:00",12.7,11.8,0.0,0.0,0,1011.5,0,0,"",94
"2019-06-02 02:43:00",12.7,11.8,0.0,0.0,0,1011.4,0,0,"",94
"2019-06-02 02:44:00",12.7,11.8,0.0,0.0,0,1011.5,0,0,"",94
"2019-06-02 02:45:00",12.7,11.9,0.0,0.0,0,1011.5,0,0,"",95
"2019-06-02 02:46:00",12.7,11.8,0.0,0.0,0,1011.4,0,0,"",94
"2019-06-02 02:47:00",12.7,11.8,0.0,0.0,0,1011.4,0,0,"",94
"2019-06-02 02:48:00",12.7,11.8,0.0,0.0,0,1011.4,0,0,"",94
"2019-06-02 02:49:00",12.7,11.8,0.0,0.0,0,1011.4,0,0,"",94
"2019-06-02 02:50:00",12.6,11.7,0.0,0.0,0,1011.4,0,0,"",94
"2019-06-02 02:51:00",12.6,11.7,0.0,0.0,0,1011.4,0,0,"",94
"2019-06-02 02:52:00",12.6,11.7,0.0,0.0,0,1011.4,0,0,"",94
"2019-06-02 02:53:00",12.6,11.7,0.0,0.0,0,1011.4,0,0,"",94
"2019-06-02 02:54:00",12.6,11.7,0.0,0.0,0,1011.4,0,0,"",94
"2019-06-02 02:55:00",12.5,11.6,0.0,0.0,0,1011.3,0,0,"",94
"2019-06-02 02:56:00",12.6,11.7,0.0,0.0,0,1011.4,0,0,"",94
"2019-06-02 02:57:00",12.5,11.6,0.0,0.0,0,1011.3,0,0,"",94
"2019-06-02 02:58:00",12.5,11.6,0.0,0.0,0,1011.3,0,0,"",94
"2019-06-02 02:59:00",12.4,11.5,0.0,0.0,0,1011.3,0,0,"",94
"2019-06-02 03:00:00",12.4,11.5,0.0,0.0,0,1011.3,0,0,"",94
"2019-06-02 03:01:00",12.4,11.5,0.0,0.0,0,1011.3,0,0,"",94
"2019-06-02 03:02:00",12.3,11.4,0.0,0.0,0,1011.3,0,0,"",94
"2019-06-02 03:03:00",12.4,11.5,0.0,0.0,0,1011.2,0,0,"",94
"2019-06-02 03:04:00",12.4,11.5,0.0,0.0,0,1011.2,0,0,"",94
"2019-06-02 03:05:00",12.4,11.5,0.0,0.0,0,1011.2,0,0,"",94
"2019-06-02 03:06:00",12.4,11.5,0.0,0.0,0,1011.2,0,0,"",94
"2019-06-02 03:07:00",12.3,11.4,0.0,0.0,0,1011.2,0,0,"",94
"2019-06-02 03:08:00",12.3,11.4,0.0,0.0,0,1011.2,0,0,"",94
"2019-06-02 03:09:00",12.2,11.3,0.0,0.0,0,1011.1,0,0,"",94
"2019-06-02 03:10:00",12.2,11.3,0.0,0.0,0,1011.1,0,0,"",94
"2019-06-02 03:11:00",12.3,11.4,0.0,0.0,0,1011.1,0,0,"",94
"2019-06-02 03:12:00",12.3,11.4,0.0,0.0,0,1011.1,0,0,"",94
"2019-06-02 03:13:00",12.3,11.4,0.0,0.0,0,1011.1,0,0,"",94
"2019-06-02 03:14:00",12.3,11.4,0.0,0.0,0,1011.1,0,0,"",94
"2019-06-02 03:15:00",12.3,11.4,0.0,0.0,0,1011.1,0,0,"",94
"2019-06-02 03:16:00",12.3,11.4,0.0,0.0,0,1011.0,0,0,"",94
"2019-06-02 03:17:00",12.3,11.4,0.0,0.0,0,1011.0,0,0,"",94
"2019-06-02 03:18:00",12.2,11.3,0.0,0.0,0,1011.0,0,0,"",94
"2019-06-02 03:19:00",12.2,11.3,0.0,0.0,0,1011.0,0,0,"",94
"2019-06-02 03:20:00",12.2,11.3,0.0,0.0,0,1011.0,0,0,"",94
"2019-06-02 03:21:00",12.2,11.3,0.0,0.0,0,1011.0,0,0,"",94
"2019-06-02 03:22:00",12.2,11.3,0.0,0.0,0,1010.9,0,0,"",94
"2019-06-02 03:23:00",12.1,11.2,0.0,0.0,0,1010.9,0,0,"",94
"2019-06-02 03:24:00",12.1,11.2,0.0,0.0,0,1010.9,0,0,"",94
"2019-06-02 03:25:00",12.1,11.2,0.0,0.0,0,1010.9,0,0,"",94
"2019-06-02 03:26:00",12.1,11.2,0.0,0.0,0,1010.9,0,0,"",94
"2019-06-02 03:27:00",12.1,11.2,0.0,0.0,0,1010.8,0,0,"",94
"2019-06-02 03:28:00",12.1,11.2,0.0,0.0,0,1010.8,0,0,"",94
"2019-06-02 03:29:00",12.2,11.3,0.0,0.0,0,1010.8,0,0,"",94
"2019-06-02 03:30:00",12.1,11.2,0.0,0.0,0,1010.8,0,0,"",94
"2019-06-02 03:31:00",12.2,11.3,0.0,0.0,0,1010.8,0,0,"",94
"2019-06-02 03:32:00",12.2,11.3,0.0,0.0,0,1010.8,0,0,"",94
"2019-06-02 03:33:00",12.1,11.2,0.0,0.0,0,1010.8,0,0,"",94
"2019-06-02 03:34:00",12.2,11.3,0.0,0.0,0,1010.8,0,0,"",94
"2019-06-02 03:35:00",12.1,11.2,0.0,0.0,0,1010.8,0,0,"",94
"2019-06-02 03:36:00",12.1,11.2,0.0,0.0,0,1010.7,0,0,"",94
"2019-06-02 03:37:00",12.1,11.2,0.0,0.0,0,1010.7,0,0,"",94
"2019-06-02 03:38:00",12.1,11.2,0.0,0.0,0,1010.7,0,0,"",94
"2019-06-02 03:39:00",12.1,11.3,0.0,0.0,0,1010.7,0,0,"",95
"2019-06-02 03:40:00",12.1,11.3,0.0,0.0,0,1010.7,0,0,"",95
"2019-06-02 03:41:00",12.1,11.3,0.0,0.0,0,1010.7,0,0,"",95
"2019-06-02 03:42:00",12.1,11.2,0.0,0.0,0,1010.6,0,0,"",94
"2019-06-02 03:43:00",12.1,11.2,0.0,0.0,0,1010.6,0,0,"",94
"2019-06-02 03:44:00",12.0,11.1,0.0,0.0,0,1010.6,0,0,"",94
"2019-06-02 03:45:00",12.0,11.1,0.0,0.0,0,1010.6,0,0,"",94
"2019-06-02 03:46:00",12.0,11.1,0.0,0.0,0,1010.6,0,0,"",94
"2019-06-02 03:47:00",12.0,11.1,0.0,0.0,0,1010.6,0,0,"",94
"2019-06-02 03:48:00",12.0,11.1,0.0,0.0,0,1010.5,0,0,"",94
"2019-06-02 03:49:00",12.0,11.1,0.0,0.0,0,1010.6,0,0,"",94
"2019-06-02 03:50:00",11.9,11.0,0.0,0.0,0,1010.5,0,0,"",94
"2019-06-02 03:51:00",11.9,11.0,0.0,0.0,0,1010.5,0,0,"",94
"2019-06-02 03:52:00",11.9,11.0,0.0,0.0,0,1010.5,0,0,"",94
"2019-06-02 03:53:00",11.9,11.0,0.0,0.0,0,1010.5,0,0,"",94
"2019-06-02 03:54:00",11.9,11.0,0.0,0.0,0,1010.5,0,0,"",94
"2019-06-02 03:55:00",11.9,11.0,0.0,0.0,0,1010.5,0,0,"",94
"2019-06-02 03:56:00",11.9,11.0,0.0,0.0,0,1010.5,0,0,"",94
"2019-06-02 03:57:00",11.9,11.0,0.0,0.0,0,1010.5,0,0,"",94
"2019-06-02 03:58:00",11.9,11.0,0.0,0.0,0,1010.4,0,0,"",94
"2019-06-02 03:59:00",11.9,11.0,0.0,0.0,0,1010.4,0,0,"",94
"2019-06-02 04:00:00",11.9,11.0,0.0,0.0,0,1010.4,0,0,"",94
"2019-06-02 04:01:00",11.9,11.0,0.0,0.0,0,1010.4,0,0,"",94
"2019-06-02 04:02:00",11.9,11.0,0.0,0.0,0,1010.4,0,0,"",94
"2019-06-02 04:03:00",11.9,11.0,0.0,0.0,0,1010.4,0,0,"",94
"2019-06-02 04:04:00",11.9,11.0,0.0,0.0,0,1010.4,0,0,"",94
"2019-06-02 04:05:00",11.9,11.1,0.0,0.0,0,1010.3,0,0,"",95
"2019-06-02 04:06:00",11.9,11.0,0.0,0.0,0,1010.3,0,0,"",94
"2019-06-02 04:07:00",11.9,11.1,0.0,0.0,0,1010.3,0,0,"",95
"2019-06-02 04:08:00",11.9,11.1,0.0,0.0,0,1010.3,0,0,"",95
"2019-06-02 04:09:00",11.9,11.1,0.0,0.0,0,1010.3,0,0,"",95
"2019-06-02 04:10:00",11.9,11.0,0.0,0.0,0,1010.3,0,0,"",94
"2019-06-02 04:11:00",11.9,11.1,0.0,0.0,0,1010.2,0,0,"",95
"2019-06-02 04:12:00",11.8,10.9,0.0,0.0,0,1010.2,0,0,"",94
"2019-06-02 04:13:00",11.8,10.9,0.0,0.0,0,1010.2,0,0,"",94
"2019-06-02 04:14:00",11.8,11.0,0.0,0.0,0,1010.2,0,0,"",95
"2019-06-02 04:15:00",11.9,11.1,0.0,0.0,0,1010.2,0,0,"",95
"2019-06-02 04:16:00",11.9,11.1,0.0,0.0,0,1010.2,0,0,"",95
"2019-06-02 04:17:00",11.8,10.9,0.0,0.0,0,1010.2,0,0,"",94
"2019-06-02 04:18:00",11.8,10.9,0.0,0.0,0,1010.2,0,0,"",94
"2019-06-02 04:19:00",11.8,10.9,0.0,0.0,0,1010.2,0,0,"",94
"2019-06-02 04:20:00",11.7,10.8,0.0,0.0,0,1010.1,0,0,"",94
"2019-06-02 04:21:00",11.7,10.9,0.0,0.0,0,1010.1,0,0,"",95
"2019-06-02 04:22:00",11.7,10.9,0.0,0.0,0,1010.1,0,0,"",95
"2019-06-02 04:23:00",11.7,10.9,0.0,0.0,0,1010.1,0,0,"",95
"2019-06-02 04:24:00",11.7,10.9,0.0,0.0,0,1010.1,0,0,"",95
"2019-06-02 04:25:00",11.7,10.9,0.0,0.0,0,1010.1,0,0,"",95
"2019-06-02 04:26:00",11.7,10.9,0.0,0.0,0,1010.1,0,0,"",95
"2019-06-02 04:27:00",11.7,10.8,0.0,0.0,0,1010.1,0,0,"",94
"2019-06-02 04:28:00",11.7,10.9,0.0,0.0,0,1010.1,0,0,"",95
"2019-06-02 04:29:00",11.7,10.9,0.0,0.0,0,1010.0,0,0,"",95
"2019-06-02 04:30:00",11.7,10.9,0.0,0.0,0,1010.0,0,0,"",95
"2019-06-02 04:31:00",11.7,10.9,0.0,0.0,0,1010.0,0,0,"",95
"2019-06-02 04:32:00",11.6,10.7,0.0,0.0,0,1010.0,0,0,"",94
"2019-06-02 04:33:00",11.6,10.7,0.0,0.0,0,1010.0,0,0,"",94
"2019-06-02 04:34:00",11.6,10.7,0.0,0.0,0,1010.0,0,0,"",94
"2019-06-02 04:35:00",11.7,10.9,0.0,0.0,0,1010.0,0,0,"",95
"2019-06-02 04:36:00",11.6,10.8,0.0,0.0,0,1010.0,0,0,"",95
"2019-06-02 04:37:00",11.6,10.7,0.0,0.0,0,1010.0,0,0,"",94
"2019-06-02 04:38:00",11.6,10.7,0.0,0.0,0,1010.0,0,0,"",94
"2019-06-02 04:39:00",11.6,10.7,0.0,0.0,0,1010.0,0,0,"",94
"2019-06-02 04:40:00",11.5,10.6,0.0,0.0,0,1010.0,0,0,"",94
"2019-06-02 04:41:00",11.5,10.6,0.0,0.0,0,1009.9,0,0,"",94
"2019-06-02 04:42:00",11.6,10.8,0.0,0.0,0,1009.9,0,0,"",95
"2019-06-02 04:43:00",11.6,10.8,0.0,0.0,0,1009.9,0,0,"",95
"2019-06-02 04:44:00",11.6,10.8,0.0,0.0,0,1010.0,0,0,"",95
"2019-06-02 04:45:00",11.5,10.7,0.0,0.0,0,1010.0,0,0,"",95
"2019-06-02 04:46:00",11.5,10.7,0.0,0.0,0,1009.9,0,0,"",95
"2019-06-02 04:47:00",11.6,10.8,0.0,0.0,0,1009.9,0,0,"",95
"2019-06-02 04:48:00",11.6,10.8,0.0,0.0,0,1009.9,0,0,"",95
"2019-06-02 04:49:00",11.5,10.6,0.0,0.0,0,1009.9,0,0,"",94
"2019-06-02 04:50:00",11.4,10.5,0.0,0.0,0,1009.9,0,0,"",94
"2019-06-02 04:51:00",11.4,10.6,0.0,0.0,0,1009.9,0,0,"",95
"2019-06-02 04:52:00",11.4,10.6,0.0,0.0,0,1009.9,0,0,"",95
"2019-06-02 04:53:00",11.4,10.6,0.0,0.0,0,1009.9,0,0,"",95
"2019-06-02 04:54:00",11.4,10.6,0.0,0.0,0,1009.9,0,0,"",95
"2019-06-02 04:55:00",11.4,10.6,0.0,0.0,0,1009.9,0,0,"",95
"2019-06-02 04:56:00",11.4,10.6,0.0,0.0,0,1009.9,0,0,"",95
"2019-06-02 04:57:00",11.4,10.6,0.0,0.0,0,1009.9,0,0,"",95
"2019-06-02 04:58:00",11.4,10.6,0.0,0.0,0,1009.8,0,0,"",95
"2019-06-02 04:59:00",11.4,10.6,0.0,0.0,0,1009.8,0,0,"",95
"2019-06-02 05:00:00",11.4,10.6,0.0,0.0,0,1009.9,0,0,"",95
"2019-06-02 05:01:00",11.4,10.6,0.0,0.0,0,1009.8,0,0,"",95
"2019-06-02 05:02:00",11.4,10.6,0.0,0.0,0,1009.8,0,0,"",95
"2019-06-02 05:03:00",11.4,10.6,0.0,0.0,0,1009.8,0,0,"",95
"2019-06-02 05:04:00",11.4,10.6,0.0,0.0,0,1009.8,0,0,"",95
"2019-06-02 05:05:00",11.4,10.6,0.0,0.0,0,1009.8,0,0,"",95
"2019-06-02 05:06:00",11.4,10.6,0.0,0.0,0,1009.8,0,0,"",95
"2019-06-02 05:07:00",11.4,10.6,0.0,0.0,0,1009.8,0,0,"",95
"2019-06-02 05:08:00",11.3,10.5,0.0,0.0,5,1009.8,0,0,"",95
"2019-06-02 05:09:00",11.4,10.6,0.0,0.0,5,1009.8,0,0,"",95
"2019-06-02 05:10:00",11.4,10.6,0.0,0.0,5,1009.8,0,0,"",95
"2019-06-02 05:11:00",11.4,10.6,0.0,0.0,5,1009.8,0,0,"",95
"2019-06-02 05:12:00",11.4,10.6,0.0,0.0,5,1009.8,0,0,"",95
"2019-06-02 05:13:00",11.4,10.6,0.0,0.0,7,1009.8,0,0,"",95
"2019-06-02 05:14:00",11.3,10.5,0.0,0.0,7,1009.8,0,0,"",95
"2019-06-02 05:15:00",11.3,10.4,0.0,0.0,7,1009.8,0,0,"",94
"2019-06-02 05:16:00",11.3,10.5,0.0,0.0,9,1009.8,0,0,"",95
"2019-06-02 05:17:00",11.4,10.6,0.0,0.0,9,1009.8,0,0,"",95
"2019-06-02 05:18:00",11.4,10.6,0.0,0.0,9,1009.9,0,0,"",95
"2019-06-02 05:19:00",11.4,10.6,0.0,0.0,9,1009.8,0,0,"",95
"2019-06-02 05:20:00",11.5,10.7,0.0,0.0,9,1009.8,0,0,"",95
"2019-06-02 05:21:00",11.4,10.6,0.0,0.0,11,1009.8,0,0,"",95
"2019-06-02 05:22:00",11.4,10.6,0.0,0.0,11,1009.8,0,0,"",95
"2019-06-02 05:23:00",11.4,10.6,0.0,0.0,11,1009.8,0,0,"",95
"2019-06-02 05:24:00",11.4,10.6,0.0,0.0,12,1009.8,0,0,"",95
"2019-06-02 05:25:00",11.4,10.6,0.0,0.0,12,1009.8,0,0,"",95
"2019-06-02 05:26:00",11.4,10.6,0.0,0.0,14,1009.8,0,0,"",95
"2019-06-02 05:27:00",11.4,10.6,0.0,0.0,16,1009.7,0,0,"",95
"2019-06-02 05:28:00",11.5,10.7,0.0,0.0,16,1009.7,0,0,"",95
"2019-06-02 05:29:00",11.6,10.8,0.0,0.0,18,1009.7,0,0,"",95
"2019-06-02 05:30:00",11.6,10.8,0.0,0.0,18,1009.7,0,0,"",95
"2019-06-02 05:31:00",11.6,10.8,0.0,0.0,18,1009.7,0,0,"",95
"2019-06-02 05:32:00",11.6,10.8,0.0,0.0,18,1009.6,0,0,"",95
"2019-06-02 05:33:00",11.7,10.9,0.0,0.0,19,1009.6,0,0,"",95
"2019-06-02 05:34:00",11.6,10.8,0.0,0.0,19,1009.6,0,0,"",95
"2019-06-02 05:35:00",11.6,10.8,0.0,0.0,19,1009.6,0,0,"",95
"2019-06-02 05:36:00",11.6,10.8,0.0,0.0,19,1009.6,0,0,"",95
"2019-06-02 05:37:00",11.6,10.8,0.0,0.0,19,1009.5,0,0,"",95
"2019-06-02 05:38:00",11.6,10.8,0.0,0.0,21,1009.5,0,0,"",95
"2019-06-02 05:39:00",11.6,10.8,0.0,0.0,21,1009.5,0,0,"",95
"2019-06-02 05:40:00",11.7,10.9,0.0,0.0,23,1009.5,0,0,"",95
"2019-06-02 05:41:00",11.7,10.9,0.0,0.0,23,1009.6,0,0,"",95
"2019-06-02 05:42:00",11.6,10.8,0.0,0.0,25,1009.5,0,0,"",95
"2019-06-02 05:43:00",11.6,10.8,0.0,0.0,26,1009.5,0,0,"",95
"2019-06-02 05:44:00",11.6,10.8,0.0,0.0,28,1009.5,0,0,"",95
"2019-06-02 05:45:00",11.7,10.9,0.0,0.0,30,1009.5,0,0,"",95
"2019-06-02 05:46:00",11.7,10.9,0.0,0.0,30,1009.4,0,0,"",95
"2019-06-02 05:47:00",11.7,10.9,0.0,0.0,30,1009.4,0,0,"",95
"2019-06-02 05:48:00",11.8,11.0,0.0,0.0,30,1009.4,0,0,"",95
"2019-06-02 05:49:00",11.8,11.0,0.0,0.0,33,1009.4,0,0,"",95
"2019-06-02 05:50:00",11.8,11.0,0.0,0.0,33,1009.4,0,0,"",95
"2019-06-02 05:51:00",11.9,11.1,0.0,0.0,35,1009.3,0,0,"",95
"2019-06-02 05:52:00",11.8,11.0,0.0,0.0,35,1009.3,0,0,"",95
"2019-06-02 05:53:00",11.8,11.0,0.0,0.0,35,1009.3,0,0,"",95
"2019-06-02 05:54:00",11.9,11.1,0.0,0.0,37,1009.3,0,0,"",95
"2019-06-02 05:55:00",11.9,11.1,0.0,0.0,37,1009.3,0,0,"",95
"2019-06-02 05:56:00",12.0,11.2,0.0,0.0,39,1009.3,0,0,"",95
"2019-06-02 05:57:00",12.0,11.2,0.0,0.0,37,1009.3,0,0,"",95
"2019-06-02 05:58:00",12.1,11.3,0.0,0.0,39,1009.2,0,0,"",95
"2019-06-02 05:59:00",12.1,11.3,0.0,0.0,40,1009.3,0,0,"",95
"2019-06-02 06:00:00",12.1,11.3,0.0,0.0,40,1009.2,0,0,"",95
"2019-06-02 06:01:00",12.1,11.3,0.0,0.0,44,1009.2,0,0,"",95
"2019-06-02 06:02:00",12.2,11.4,0.0,0.0,49,1009.2,0,0,"",95
"2019-06-02 06:03:00",12.2,11.4,0.0,0.0,51,1009.2,0,0,"",95
"2019-06-02 06:04:00",12.2,11.4,0.0,0.0,53,1009.2,0,0,"",95
"2019-06-02 06:05:00",12.3,11.5,0.0,0.0,54,1009.2,0,0,"",95
"2019-06-02 06:06:00",12.3,11.5,0.0,0.0,54,1009.2,0,0,"",95
"2019-06-02 06:07:00",12.3,11.5,0.0,0.0,58,1009.2,0,0,"",95
"2019-06-02 06:08:00",12.4,11.6,0.0,0.0,60,1009.2,0,0,"",95
"2019-06-02 06:09:00",12.4,11.6,0.0,0.0,60,1009.2,0,0,"",95
"2019-06-02 06:10:00",12.4,11.6,0.0,0.0,62,1009.2,0,0,"",95
"2019-06-02 06:11:00",12.6,11.8,0.0,0.0,63,1009.2,0,0,"",95
"2019-06-02 06:12:00",12.6,11.8,0.0,0.0,63,1009.2,0,0,"",95
"2019-06-02 06:13:00",12.7,11.9,0.0,0.0,65,1009.3,0,0,"",95
"2019-06-02 06:14:00",12.8,12.0,0.0,0.0,67,1009.3,0,0,"",95
"2019-06-02 06:15:00",12.8,12.0,0.0,0.0,69,1009.3,0,0,"",95
"2019-06-02 06:16:00",12.8,12.0,0.0,0.0,67,1009.3,0,0,"",95
"2019-06-02 06:17:00",12.9,12.1,0.0,0.0,67,1009.3,0,0,"",95
"2019-06-02 06:18:00",12.9,12.1,0.0,0.0,67,1009.2,0,0,"",95
"2019-06-02 06:19:00",13.0,12.2,0.0,0.0,62,1009.2,0,0,"",95
"2019-06-02 06:20:00",13.1,12.3,0.0,0.0,63,1009.2,0,0,"",95
"2019-06-02 06:21:00",13.1,12.3,0.0,0.0,63,1009.2,0,0,"",95
"2019-06-02 06:22:00",13.2,12.4,0.0,0.0,67,1009.2,0,0,"",95
"2019-06-02 06:23:00",13.2,12.4,0.0,0.0,69,1009.2,0,0,"",95
"2019-06-02 06:24:00",13.3,12.5,0.0,0.0,69,1009.2,0,0,"",95
"2019-06-02 06:25:00",13.3,12.5,0.0,0.0,70,1009.2,0,0,"",95
"2019-06-02 06:26:00",13.4,12.6,0.0,0.0,69,1009.2,0,0,"",95
"2019-06-02 06:27:00",13.4,12.6,0.0,0.0,67,1009.2,0,0,"",95
"2019-06-02 06:28:00",13.5,12.7,0.0,0.0,67,1009.2,0,0,"",95
"2019-06-02 06:29:00",13.5,12.6,0.0,0.0,67,1009.1,0,0,"",94
"2019-06-02 06:30:00",13.6,12.7,0.0,0.0,67,1009.2,0,0,"",94
"2019-06-02 06:31:00",13.6,12.8,0.0,0.0,69,1009.1,0,0,"",95
"2019-06-02 06:32:00",13.6,12.8,0.0,0.0,70,1009.1,0,0,"",95
"2019-06-02 06:33:00",13.6,12.7,0.0,0.0,72,1009.1,0,0,"",94
"2019-06-02 06:34:00",13.7,12.9,0.0,0.0,74,1009.1,0,0,"",95
"2019-06-02 06:35:00",13.8,13.0,0.0,0.0,76,1009.2,0,0,"",95
"2019-06-02 06:36:00",13.8,12.9,0.0,0.0,76,1009.1,0,0,"",94
"2019-06-02 06:37:00",13.8,13.0,0.0,0.0,77,1009.2,0,0,"",95
"2019-06-02 06:38:00",13.8,13.0,0.0,0.0,79,1009.1,0,0,"",95
"2019-06-02 06:39:00",13.9,13.1,0.0,0.0,79,1009.1,0,0,"",95
"2019-06-02 06:40:00",13.9,12.9,0.0,0.0,81,1009.2,0,0,"",94
"2019-06-02 06:41:00",13.9,12.9,0.0,0.0,81,1009.1,0,0,"",94
"2019-06-02 06:42:00",13.9,12.9,0.0,0.0,83,1009.1,0,0,"",94